[[{"header":{"parameterUnit":"m.s-1","parameterCategory":1,"la1":30.2991,"la2":30.254,"lo1":-89.0895,"lo2":-89.0444,"dy":0.0017,"dx":0.0017,"nx":28,"ny":28,"refTime":"2025-11-12T09:00:00:Z","depth":0,"parameterNumber":2,"parameterNumberName":"U-component_of_WINDS"},"data":[0,0,0,0,0,0,0,0,0,0,0,0,0,0,0,0,0,0,0,0,0,0,0,0,0,0,0,0,0,0,0,0,0,0,0,0,0,0,0,0,0,0,0,0,0,0,0,0,0,0,0,0,0,0,0,0,0,0,0.22,0.2201,0,0.2246,0.2246,0.2247,0.2235,0.2234,0.2233,0.2233,0.2284,0.2287,0.2289,0,0,0,0,0,0,0,0,0,0,0,0,0,0.2108,0.211,0.22,0.2201,0.2201,0.2246,0.2246,0.2247,0.2235,0.2234,0.2233,0.2232,0.2284,0.2286,0.2289,0,0,0,0,0,0,0,0,0,0,0,0,0,0.215,0.211,0.22,0.2201,0.2201,0.2246,0.2246,0.2247,0.2236,0.2234,0.2233,0.2232,0.2283,0.2286,0.2289,0.2337,0,0,0.23,0.2301,0,0,0,0,0,0,0,0,0.2148,0.2154,0.22,0.2201,0.2202,0.2233,0.2233,0.2278,0.2236,0.2223,0.2233,0.2231,0.2269,0.2273,0.2285,0.234,0.2342,0.23,0.2302,0.2303,0.2304,0,0,0,0,0,0,0,0.2145,0.2152,0.2218,0.2201,0.2202,0.22,0.2205,0.2241,0.2253,0.2224,0.2223,0.2228,0.2269,0.2282,0.2286,0.2343,0.23,0.2303,0.2305,0.2306,0.2438,0.244,0,0,0,0,0,0,0.2141,0.2149,0.2217,0.222,0.2171,0.2203,0.2208,0.2225,0.2253,0.2256,0.2229,0.2228,0.2277,0.2282,0.2288,0.2345,0.2303,0.2307,0.2308,0.2437,0.2438,0.244,0,0,0,0,0,0,0.2139,0.2147,0.2215,0.2184,0.2193,0.2206,0.2225,0.2226,0.2239,0.2257,0.2259,0.224,0.2276,0.2283,0.2324,0.2346,0.2308,0.2311,0.2435,0.2437,0.2439,0.2459,0,0,0,0,0,0,0.2136,0.2146,0.2164,0.2185,0.2195,0.225,0.2226,0.2228,0.2244,0.2242,0.2267,0.227,0.2275,0.232,0.2328,0.235,0.2314,0.2433,0.2436,0.2439,0.2457,0.2462,0.2467,0,0,0,0,0,0.2133,0.2169,0.2165,0.2173,0.2216,0.2251,0.2257,0.226,0.2246,0.2264,0.2275,0.227,0.2343,0.2324,0.2333,0.2357,0.2432,0.2435,0.2438,0.2455,0.2461,0.2466,0,0,0,0,0,0,0.2152,0.2172,0.2167,0.2211,0.2229,0.2249,0.2272,0.2267,0.2291,0.2289,0.2294,0.23,0.2341,0.2354,0.2332,0.2404,0.2385,0.2391,0.2395,0.2401,0.2406,0.2402,0.2316,0,0,0,0,0,0.2161,0.2186,0.2203,0.224,0.2249,0.2259,0.2274,0.2275,0.2295,0.2303,0.2318,0.2339,0.2366,0.2384,0.2411,0.2459,0.2464,0.248,0.2485,0.2489,0.2493,0.2518,0.2525,0.2451,0.2451,0.2451,0,0,0.2181,0.2194,0.221,0.2244,0.2258,0.2285,0.2265,0.2295,0.2315,0.2308,0.2347,0.2359,0.2382,0.2427,0.2447,0.2438,0.2515,0.2493,0.2496,0.2498,0.2522,0.2529,0.2536,0.2453,0.2453,0.2453,0,0,0.2229,0.2242,0.2274,0.2288,0.2309,0.2315,0.2323,0.2343,0.235,0.2389,0.2384,0.2409,0.2456,0.2473,0.2488,0.2542,0.2537,0.2551,0.2576,0.26,0.2606,0.2611,0.263,0.2636,0.2555,0.2555,0.2555,0,0.2251,0.2289,0.2291,0.232,0.2335,0.2328,0.236,0.2375,0.2405,0.2415,0.2405,0.2463,0.2479,0.2526,0.2539,0.2552,0.2561,0.2547,0.2605,0.261,0.2615,0.2633,0.264,0.2557,0.2556,0.2556,0.2556,0,0.2315,0.2342,0.2365,0.2391,0.2409,0.244,0.2447,0.2465,0.2464,0.2472,0.2512,0.253,0.2559,0.2571,0.2572,0.2619,0.2612,0.2603,0.2584,0.2623,0.264,0.2647,0.2559,0.2558,0.2558,0.2557,0,0,0.2377,0.2402,0.2411,0.2422,0.2445,0.2466,0.2497,0.2524,0.2539,0.256,0.2586,0.2626,0.2617,0.2634,0.2636,0.2658,0.2698,0.2646,0.2647,0.2654,0.275,0.2756,0.2764,0.2695,0.2697,0.2698,0.2748,0,0.2426,0.2478,0.248,0.2528,0.2553,0.2547,0.2574,0.2591,0.2599,0.2622,0.2632,0.266,0.2646,0.2656,0.2677,0.2689,0.2717,0.2685,0.272,0.2721,0.2713,0.2773,0.2779,0.2825,0.2754,0.2755,0.2756,0,0.2491,0.2511,0.2561,0.2579,0.259,0.2614,0.2638,0.266,0.268,0.2684,0.2702,0.2701,0.2734,0.2714,0.2758,0.2737,0.2751,0.2759,0.2761,0.2764,0.2741,0.2776,0.284,0.2847,0.2767,0.2766,0.2765,0,0.253,0.257,0.2605,0.2615,0.2637,0.2654,0.2664,0.2682,0.2698,0.272,0.273,0.2757,0.2771,0.2792,0.2798,0.2783,0.2842,0.2823,0.2847,0.2847,0.286,0.2859,0.2926,0.287,0.287,0.287,0.287,0,0.2585,0.2615,0.2622,0.2644,0.2678,0.268,0.2715,0.2724,0.274,0.2764,0.2761,0.2784,0.2791,0.2815,0.2821,0.2857,0.2864,0.2868,0.2869,0.2868,0.2867,0.2877,0.2874,0.2872,0.2872,0.2871,0.2871,0,0.2634,0.2639,0.2677,0.2694,0.2699,0.2723,0.2739,0.276,0.2767,0.2797,0.2804,0.2816,0.2844,0.2853,0.2887,0.2891,0.2932,0.2931,0.2925,0.2925,0.2948,0.2945,0.3023,0.3033,0.2972,0.2973,0.2973,0,0.2668,0.2691,0.271,0.2724,0.2735,0.2759,0.2774,0.2778,0.2795,0.2818,0.2836,0.2864,0.2886,0.2931,0.2944,0.297,0.2969,0.2994,0.2973,0.297,0.2968,0.2966,0.2968,0.2998,0.2999,0.2999,0.3,0,0.2727,0.2729,0.275,0.2773,0.279,0.2809,0.2827,0.2839,0.2846,0.2865,0.2892,0.2909,0.2943,0.297,0.2996,0.3008,0.3005,0.3006,0.3013,0.3011,0.3006,0.3008,0.2935,0.3004,0.3004,0.3004,0.3003,0.3003,0.2769,0.2789,0.2805,0.2829,0.2842,0.2858,0.2878,0.2887,0.291,0.2936,0.2938,0.2968,0.2987,0.3021,0.3034,0.3058,0.3051,0.3061,0.3064,0.3066,0.3067,0.3003,0.3064,0.3063,0.3063,0.3063,0.3063,0,0.2827,0.2837,0.2859,0.2883,0.2902,0.2895,0.2915,0.2931,0.2957,0.2974,0.2995,0.3026,0.3052,0.3066,0.3093,0.3109,0.3108,0.3116,0.3114,0.3117,0.3073,0.3064,0.3116,0.3116,0.3116,0.3116,0.3116,0.3116,0.286,0.2892,0.2896,0.2935,0.2945,0.2973,0.2984,0.2999,0.3013,0.3047,0.3068,0.3077,0.3093,0.3119,0.3143,0.3147,0.3156,0.3164,0.3167,0.3125,0.312,0.3115,0.3106,0.3167,0.3167,0.3209,0.3209,0.321]},{"header":{"parameterUnit":"m.s-1","parameterCategory":1,"la1":30.2991,"la2":30.254,"lo1":-89.0895,"lo2":-89.0444,"dy":0.0017,"dx":0.0017,"nx":28,"ny":28,"refTime":"2025-11-12T09:00:00:Z","depth":0,"parameterNumber":3,"parameterNumberName":"V-component_of_WINDS"},"data":[0,0,0,0,0,0,0,0,0,0,0,0,0,0,0,0,0,0,0,0,0,0,0,0,0,0,0,0,0,0,0,0,0,0,0,0,0,0,0,0,0,0,0,0,0,0,0,0,0,0,0,0,0,0,0,0,0,0,1.9911,1.9911,0,1.985,1.985,1.9849,1.9826,1.9826,1.9827,1.9827,1.9757,1.9755,1.9753,0,0,0,0,0,0,0,0,0,0,0,0,0,2.0002,2.0,1.9912,1.9911,1.991,1.985,1.985,1.9849,1.9826,1.9826,1.9827,1.9827,1.9758,1.9756,1.9753,0,0,0,0,0,0,0,0,0,0,0,0,0,1.9953,2.0,1.9912,1.9892,1.9889,1.9851,1.9849,1.9848,1.9826,1.9826,1.9827,1.9827,1.9759,1.9756,1.9753,1.9727,0,0,1.9743,1.9742,0,0,0,0,0,0,0,0,1.9956,1.995,1.9895,1.9893,1.989,1.9846,1.9856,1.9808,1.9826,1.985,1.9827,1.9827,1.9786,1.9781,1.9768,1.9724,1.9721,1.9743,1.9741,1.974,1.9739,0,0,0,0,0,0,0,1.996,1.9953,1.9887,1.9895,1.9891,1.9883,1.9877,1.9847,1.9817,1.9848,1.9846,1.9839,1.9785,1.9772,1.9767,1.972,1.9743,1.974,1.9739,1.9737,1.9649,1.9649,0,0,0,0,0,0,1.9967,1.9956,1.9889,1.9885,1.9925,1.9882,1.9874,1.986,1.9817,1.9811,1.9839,1.9839,1.9777,1.977,1.9764,1.973,1.974,1.9737,1.9735,1.965,1.9649,1.9649,0,0,0,0,0,0,1.9969,1.9962,1.9891,1.992,1.991,1.988,1.9864,1.9859,1.9845,1.9811,1.9805,1.9832,1.9777,1.9768,1.9737,1.9727,1.9736,1.9733,1.965,1.9649,1.9649,1.9663,0,0,0,0,0,0,1.9972,1.9962,1.9954,1.992,1.9909,1.9867,1.9863,1.9857,1.9841,1.984,1.9802,1.9796,1.9776,1.9741,1.9734,1.9723,1.973,1.9651,1.965,1.9649,1.9663,1.9663,1.9663,0,0,0,0,0,1.9975,1.996,1.9954,1.9946,1.9899,1.9867,1.986,1.984,1.984,1.9831,1.9808,1.9797,1.973,1.9738,1.9729,1.9718,1.9651,1.965,1.9649,1.9663,1.9663,1.9663,0,0,0,0,0,0,1.9992,1.9955,1.9948,1.9922,1.9898,1.9863,1.985,1.984,1.9814,1.9814,1.9788,1.9779,1.9749,1.973,1.974,1.969,1.969,1.9687,1.9704,1.9703,1.9703,1.9707,1.9728,0,0,0,0,0,1.9993,1.9972,1.994,1.992,1.9908,1.9882,1.9867,1.9853,1.9827,1.9816,1.9791,1.9764,1.9736,1.9719,1.9691,1.9661,1.965,1.9648,1.9648,1.9648,1.9645,1.9625,1.9623,1.9645,1.9645,1.9645,0,0,1.9993,1.9971,1.9959,1.9922,1.9902,1.9879,1.9873,1.9849,1.9831,1.9811,1.978,1.9761,1.9728,1.9697,1.9681,1.968,1.9637,1.9646,1.9647,1.9644,1.9624,1.9622,1.962,1.9644,1.9644,1.9644,0,0,1.9983,1.9965,1.9945,1.9926,1.9896,1.9878,1.9873,1.984,1.9827,1.9796,1.978,1.9757,1.9711,1.9688,1.967,1.965,1.9638,1.9642,1.9639,1.962,1.9619,1.9617,1.9608,1.9605,1.9639,1.9639,1.9639,0,1.9988,1.9955,1.9936,1.9913,1.9896,1.9879,1.9857,1.9838,1.98,1.9788,1.9788,1.9729,1.9706,1.9667,1.9662,1.9649,1.9641,1.9645,1.9621,1.9619,1.9617,1.9608,1.9605,1.964,1.964,1.964,1.964,0,1.9961,1.9938,1.9925,1.9891,1.9873,1.985,1.9826,1.9809,1.9797,1.9778,1.9745,1.9716,1.9683,1.9673,1.966,1.9632,1.9632,1.9627,1.9625,1.9616,1.9607,1.9603,1.9641,1.964,1.964,1.964,0,0,1.996,1.9915,1.9911,1.9894,1.986,1.984,1.9816,1.9785,1.977,1.9744,1.9722,1.9683,1.9677,1.9657,1.9641,1.9625,1.9608,1.9621,1.962,1.9618,1.9573,1.9576,1.9573,1.9601,1.96,1.9599,1.9575,0,1.9944,1.9903,1.9884,1.985,1.9827,1.981,1.9788,1.9763,1.9745,1.9721,1.9699,1.9672,1.9668,1.9655,1.9638,1.9614,1.9598,1.9616,1.9576,1.9575,1.9584,1.9568,1.9572,1.955,1.9572,1.9571,1.9571,0,1.9921,1.9896,1.9861,1.9827,1.9817,1.9799,1.9768,1.9746,1.9716,1.9703,1.9681,1.9665,1.9636,1.9638,1.9596,1.9608,1.9591,1.9576,1.9575,1.9569,1.9572,1.9561,1.9543,1.954,1.9565,1.9566,1.9566,0,1.9922,1.988,1.9853,1.9839,1.98,1.9787,1.977,1.9741,1.9723,1.9695,1.9682,1.965,1.9633,1.9607,1.9583,1.9586,1.9542,1.9542,1.9528,1.9529,1.9519,1.952,1.9497,1.951,1.951,1.951,1.9511,0,1.9906,1.9884,1.9852,1.9836,1.981,1.9787,1.9761,1.9743,1.9716,1.9693,1.9676,1.9654,1.9624,1.9597,1.9578,1.9544,1.9537,1.9524,1.9518,1.9525,1.9526,1.9512,1.9512,1.951,1.951,1.951,1.951,0,1.9902,1.9881,1.985,1.9816,1.9806,1.9789,1.9758,1.9739,1.972,1.9691,1.9683,1.9651,1.9619,1.9592,1.9549,1.9536,1.9501,1.9496,1.9512,1.9509,1.9496,1.9497,1.9462,1.9455,1.9475,1.9475,1.9475,0,1.9893,1.9876,1.9841,1.9825,1.9809,1.9784,1.9765,1.9742,1.9723,1.9687,1.9672,1.9639,1.9611,1.956,1.9531,1.9498,1.949,1.9481,1.9485,1.9491,1.9488,1.9489,1.9486,1.948,1.948,1.948,1.948,0,1.9879,1.9869,1.9845,1.9816,1.9795,1.977,1.9745,1.9733,1.9704,1.9683,1.9651,1.963,1.9586,1.9553,1.9516,1.9495,1.9481,1.9479,1.9473,1.9479,1.9488,1.9481,1.9509,1.9479,1.9479,1.9479,1.9479,1.9479,1.9871,1.9855,1.9827,1.9799,1.9778,1.9755,1.9736,1.9714,1.9688,1.9652,1.9639,1.9605,1.9573,1.9523,1.9502,1.9473,1.9471,1.9464,1.9462,1.946,1.946,1.9494,1.9466,1.9466,1.9466,1.9466,1.9466,0,1.9855,1.9836,1.9811,1.9777,1.9755,1.9747,1.9718,1.9699,1.967,1.9643,1.9616,1.9577,1.9544,1.9513,1.9478,1.9461,1.9453,1.9452,1.9452,1.9447,1.9465,1.9472,1.9458,1.9458,1.9458,1.9458,1.9458,1.9458,1.9844,1.9815,1.9801,1.976,1.974,1.9709,1.9693,1.967,1.9648,1.9607,1.958,1.9561,1.953,1.9492,1.9461,1.9452,1.9439,1.9439,1.9428,1.9445,1.9446,1.9447,1.9454,1.9437,1.9437,1.9413,1.9412,1.9412]}]]